sat.trackr.live / text

‹ back to catalog

STARLINK-30461

NORAD 57933 · 2023-147W

PAYLOAD ACTIVE UNKNOWN

§ Identity

Operator
Country
US
Launch date
2023-09-24
Launch site
AFETR
Launch vehicle
Mass (kg)
RCS (m²)

Purposes: comms

External: N2YO · Heavens-Above · Gunter

§ Orbital elements

Epoch: 2026-05-25T00:04:32.754432Z

Period
94.27 min
Inclination
43.0007°
Eccentricity
0.0000975
Mean motion
15.27578487 rev/d
Perigee alt
482.4 km
Apogee alt
483.7 km
Semi-major
6,861.2 km
B*
1.4327e-5
RAAN
253.8474°
Arg perigee
278.2741°
Mean anomaly
81.8000°
Rev number
14,827

§ Raw data

STARLINK-304611 57933U 23147W   26145.00315688  .00000132  00000+0  14327-4 0  99992 57933  43.0007 253.8474 0000975 278.2741  81.8000 15.27578487148271

JSON: /api/v1/satellites/57933 · /tle

For live sub-satellite position, see the globe view (requires WebGL).

§ Visibility from observer

Set your observer location to see the next 7 days of passes ≥ 10°. The values pass through the URL so the page stays shareable.

No JS? Fill the form by hand. The geolocation button needs JavaScript.